Main page
METAR-TAF:

METAR-TAF

Airports :

Abadeh Airport

Abadeh, Iran

latitude: 31-11N, longitude: 052-40E, elevation: 2004 m

Current weather observation

The report was made 26 minutes ago, at 16:00 UTC
Wind 25 kt from the Southwest with gusts up to 37 kt
Temperature 4°C
Humidity 41%
Pressure 1012 hPa
Visibility 10 km or more
no clouds below 1500 m and no cumulonimbus

METAR: OISA 171600Z 23025G37KT CAVOK 04/M08 Q1012

Time: 19:56 (16:26 UTC)


TAF: missing

Weather observations and forecasts of more than 4000 airports (METAR and TAF reports).

The available stations are represented by yellow and red dots on the map.

Hover mouse over dot to see the name of the station.

Then click to see weather observations and forecasts.

To change the map : click on the green buttons with a black cross to zoom in, on the green button with a dash to zoom out, or on the green arrows for adjacent maps.


METAR-TAF: